Regional Weather Roundup
Issued by NWS

Home | Current Version | Previous Version | Text Only | Print | Product List | Glossary On
Versions: 1 2 3
000
ASPQ40 PGUM 010412
RWRPQ
WEATHER ROUNDUP FOR THE MARIANAS AND MICRONESIA
NATIONAL WEATHER SERVICE TIYAN GU
200 PM CHST WED OCT 01 2014

GUZ001>004-010500-
MARIANA ISLANDS-

CITY           SKY/WX    TMP DP  RH WIND       PRES   REMARKS
GUAM AIRPORT   MOSUNNY   86  77  74 SW14G24   29.58F HX  97
ANDERSEN AFB   PTSUNNY   86  75  70 SW23      29.57F HX  95
ROTA AIRPORT   PTSUNNY   82  77  83 SW16G23   29.55S HX  91
TINIAN AP      PTSUNNY   84  77  79 SW14      29.48F HX  94
SAIPAN AP      MOSUNNY   84  77  79 S13       29.54F HX  94

$$

PMZ161-010500-
REPUBLIC OF PALAU-

CITY           SKY/WX    TMP DP  RH WIND       PRES   REMARKS
KOROR AP       CLOUDY    79  77  94 SW13G23   29.71
KOROR WSO      LGT RAIN  81  75  83 SW10G24   29.71F

$$

PMZ171>174-010500-
FEDERATED STATES OF MICRONESIA-

CITY           SKY/WX    TMP DP  RH WIND       PRES   REMARKS
YAP AIRPORT    PTSUNNY   86  79  79 W12       29.65F HX  99
CHUUK AP       PTSUNNY   90  84  84 S10       29.70F HX 115
POHNPEI AP     CLOUDY    88  79  74 NW6       29.72S HX 102
POHNPEI WSO    PTSUNNY   88  79  74 NW8       29.75F HX 102
KOSRAE AP      NOT AVBL

$$

PMZ181-010500-
REPUBLIC OF THE MARSHALL ISLANDS-

CITY           SKY/WX    TMP DP  RH WIND       PRES   REMARKS
KWAJALEIN AP   MOSUNNY   84  77  79 SE9       29.68R HX  94
MAJURO AP      NOT AVBL
MAJURO WSO     CLOUDY    82  77  83 S12       29.70S HX  91

$$




USA.gov is the U.S. government's official web portal to all federal, state and local government web resources and services.